Back to catalog

WUHAN-1

AliveScienceSSO
NORAD 59810·PAYLOAD·🇨🇳 China
This satellite name has not been confirmed by official sources yet.

Launched May 21, 2024 from Jiuquan Satellite Launch Center

Loading…

Next Passes (next 24 hours)

TLE

FreshSource: Space-Track

Epoch: Sep 14, 2026, 13:02 UTC

1 59810U 24095A   26257.54351380  .00002871  00000-0  17924-3 0  9998
2 59810  97.5285 335.0776 0004447 115.8868 244.2821 15.10272001127639

Track WUHAN-1 in real time with AllMySat

Download on the App Store